KQ4KX Weather Reports


time (UTC)temp
C
wind
direction
speed
KPH
gust
KPH
rain 1hr
cm
rain 24hr
cm
rain mn
cm
humidity
%
barometer
mb
20260906035806 25 239 3.2 8.0 0.00 0.10 0.10 94 1013.8
20260906035306 26 241 4.8 12.9 0.00 0.10 0.10 93 1013.9
20260906033705 26 230 3.2 12.9 0.00 0.10 0.10 92 1013.6
20260906032705 26 231 3.2 8.0 0.00 0.10 0.10 92 1013.7
20260906032136 26 204 3.2 9.7 0.00 0.10 0.10 91 1013.9
20260906031635 26 202 3.2 9.7 0.00 0.10 0.10 91 1013.8
20260906031334 26 208 3.2 11.3 0.00 0.10 0.10 91 1013.8
20260906031136 26 208 3.2 11.3 0.00 0.10 0.10 91 1013.8
20260906030818 26 199 3.2 11.3 0.00 0.10 0.10 91 1013.9
20260906030635 26 199 3.2 11.3 0.00 0.10 0.10 91 1013.9
20260906030106 26 195 3.2 6.4 0.00 0.10 0.10 91 1013.8
20260906025606 26 187 4.8 14.5 0.00 0.10 0.10 90 1013.8
20260906025035 26 182 4.8 11.3 0.00 0.10 0.10 90 1013.7
20260906024535 26 186 3.2 12.9 0.00 0.10 0.10 90 1013.7
20260906024006 26 198 3.2 12.9 0.00 0.10 0.10 89 1013.9
20260906023614 26 195 3.2 9.7 0.00 0.10 0.10 89 1013.8
20260906023435 26 195 3.2 9.7 0.00 0.10 0.10 89 1013.8
20260906023104 26 192 3.2 9.7 0.00 0.10 0.10 89 1013.8
20260906022906 26 192 3.2 9.7 0.00 0.10 0.10 89 1013.8
20260906021835 27 177 4.8 9.7 0.00 0.10 0.10 89 1014.1
20260906021305 27 182 3.2 9.7 0.00 0.10 0.10 89 1014.0
20260906020736 27 197 3.2 11.3 0.00 0.10 0.10 88 1013.8
20260906014833 27 172 3.2 11.3 0.00 0.10 0.10 88 1013.9
20260906014635 27 172 3.2 11.3 0.00 0.10 0.10 88 1013.9
20260906013536 27 112 4.8 17.7 0.00 0.10 0.10 90 1013.7
20260906013006 26 109 3.2 17.7 0.00 0.10 0.10 92 1013.7
20260906011935 26 178 0.0 1.6 0.00 0.10 0.10 91 1013.4
20260906011701 26 178 0.0 1.6 0.00 0.10 0.10 91 1013.3
20260906011436 26 178 0.0 1.6 0.00 0.10 0.10 91 1013.3
20260906011155 26 178 0.0 1.6 0.00 0.10 0.10 91 1013.1
20260906010905 26 178 0.0 1.6 0.00 0.10 0.10 91 1013.1
20260906010625 26 178 0.0 1.6 0.00 0.10 0.10 91 1013.0
20260906010336 26 178 0.0 1.6 0.00 0.10 0.10 91 1013.0
20260906004305 27 178 0.0 1.6 0.00 0.10 0.10 89 1013.0
20260906004111 27 0 0.0 0.0 0.00 0.10 0.10 88 1013.0
20260906003806 27 0 0.0 0.0 0.00 0.10 0.10 88 1013.0
20260906003534 27 0 0.0 0.0 0.00 0.10 0.10 89 1012.9
20260906003307 27 0 0.0 0.0 0.00 0.10 0.10 89 1012.9
20260906003231 27 178 0.0 1.6 0.00 0.10 0.10 88 1013.0
20260906002806 27 178 0.0 1.6 0.00 0.10 0.10 88 1013.0
20260906002611 27 169 0.0 1.6 0.00 0.10 0.10 89 1013.0
20260906002306 27 169 0.0 1.6 0.00 0.10 0.10 89 1013.0
20260906001944 27 135 0.0 1.6 0.00 0.10 0.10 89 1013.0
20260906001736 27 135 0.0 1.6 0.00 0.10 0.10 89 1013.0
20260906001528 27 146 1.6 3.2 0.00 0.10 0.10 89 1013.1
20260906001205 27 146 1.6 3.2 0.00 0.10 0.10 89 1013.1
20260906000831 27 169 1.6 3.2 0.00 0.10 0.10 89 1013.1
20260906000635 27 169 1.6 3.2 0.00 0.10 0.10 89 1013.1
20260906000105 27 183 1.6 3.2 0.00 0.10 0.10 89 1013.0
20260905234535 27 148 0.0 4.8 0.00 0.10 0.10 88 1012.5
20260905233629 27 180 1.6 3.2 0.00 0.10 0.10 88 1012.3
20260905233506 27 180 1.6 3.2 0.00 0.10 0.10 88 1012.3
20260905233309 27 227 1.6 4.8 0.00 0.10 0.10 88 1012.4
20260905233005 27 227 1.6 4.8 0.00 0.10 0.10 88 1012.4
20260905232705 28 215 0.0 4.8 0.00 0.10 0.10 88 1012.4
20260905232505 28 215 0.0 4.8 0.00 0.10 0.10 88 1012.4
20260905231935 28 114 1.6 6.4 0.00 0.10 0.10 88 1012.6
20260905231708 28 102 3.2 6.4 0.00 0.10 0.10 88 1012.7
20260905231436 28 102 3.2 6.4 0.00 0.10 0.10 88 1012.7
20260905230905 28 97 3.2 6.4 0.00 0.10 0.10 88 1012.6
20260905230115 28 111 1.6 6.4 0.00 0.10 0.10 89 1012.7
20260905225835 28 111 1.6 6.4 0.00 0.10 0.10 89 1012.7
20260905225336 28 153 1.6 6.4 0.00 0.10 0.10 89 1012.7
20260905225119 28 145 3.2 9.7 0.10 0.10 0.10 90 1012.7
20260905224835 28 145 3.2 9.7 0.10 0.10 0.10 90 1012.7
20260905223835 27 102 1.6 6.4 0.10 0.10 0.10 90 1012.8
20260905223603 27 109 1.6 4.8 0.10 0.10 0.10 89 1012.7
20260905223335 27 109 1.6 4.8 0.10 0.10 0.10 89 1012.7
20260905223119 27 93 1.6 4.8 0.10 0.10 0.10 88 1012.7
20260905222836 27 93 1.6 4.8 0.10 0.10 0.10 88 1012.7
20260905222021 27 53 1.6 3.2 0.10 0.10 0.10 89 1012.7
20260905221805 27 53 1.6 3.2 0.10 0.10 0.10 89 1012.7
20260905221041 27 36 3.2 8.0 0.10 0.10 0.10 90 1012.8
20260905220735 27 36 3.2 8.0 0.10 0.10 0.10 90 1012.8
20260905220456 27 29 3.2 8.0 0.10 0.10 0.10 87 1012.9
20260905220206 27 29 3.2 8.0 0.10 0.10 0.10 87 1012.9
20260905215135 29 17 4.8 12.9 0.05 0.05 0.05 78 1012.7
20260905214841 30 24 4.8 8.0 0.00 0.00 0.00 81 1012.8
20260905214605 30 24 4.8 8.0 0.00 0.00 0.00 81 1012.8
20260905214105 30 38 3.2 6.4 0.00 0.00 0.00 79 1012.9
20260905213759 30 39 3.2 6.4 0.00 0.00 0.00 80 1012.8
20260905213605 30 39 3.2 6.4 0.00 0.00 0.00 80 1012.8
20260905213405 30 20 4.8 9.7 0.00 0.00 0.00 80 1012.8
20260905213106 30 20 4.8 9.7 0.00 0.00 0.00 80 1012.8
20260905212823 29 23 3.2 9.7 0.00 0.00 0.00 80 1012.7
20260905212535 29 23 3.2 9.7 0.00 0.00 0.00 80 1012.7
20260905210935 29 280 3.2 11.3 0.00 0.00 0.00 80 1012.7
20260905210405 29 280 4.8 11.3 0.00 0.00 0.00 78 1012.5
20260905205905 29 274 6.4 14.5 0.00 0.00 0.00 75 1012.6
20260905204835 30 274 8.0 19.3 0.00 0.00 0.00 74 1012.7
20260905204305 31 274 8.0 19.3 0.00 0.00 0.00 76 1012.6
20260905203735 31 270 6.4 11.3 0.00 0.00 0.00 72 1012.6
20260905203538 31 271 8.0 20.9 0.00 0.00 0.00 72 1012.5
20260905203235 31 271 8.0 20.9 0.00 0.00 0.00 72 1012.5
20260905202705 32 272 6.4 20.9 0.00 0.00 0.00 70 1012.4
20260905202205 33 281 4.8 16.1 0.00 0.00 0.00 71 1012.3
20260905201635 33 305 3.2 9.7 0.00 0.00 0.00 70 1012.3
20260905201105 33 301 3.2 11.3 0.00 0.00 0.00 66 1012.4
20260905200605 34 290 3.2 11.3 0.00 0.00 0.00 64 1012.3
20260905200358 34 289 3.2 9.7 0.00 0.00 0.00 64 1012.4
20260905200105 34 289 3.2 9.7 0.00 0.00 0.00 64 1012.4
20260905195535 34 292 4.8 12.9 0.00 0.00 0.00 65 1012.5
20260905195005 34 288 4.8 12.9 0.00 0.00 0.00 65 1012.4
20260905194435 34 287 3.2 9.7 0.00 0.00 0.00 66 1012.5
20260905193935 33 284 3.2 12.9 0.00 0.00 0.00 68 1012.4
20260905193405 33 272 3.2 12.9 0.00 0.00 0.00 68 1012.6
20260905192835 33 263 4.8 16.1 0.00 0.00 0.00 68 1012.7
20260905192549 33 262 6.4 16.1 0.00 0.00 0.00 68 1012.7
20260905192306 33 262 6.4 16.1 0.00 0.00 0.00 68 1012.7
20260905191646 33 298 3.2 11.3 0.00 0.00 0.00 67 1012.9
20260905191235 33 298 3.2 11.3 0.00 0.00 0.00 67 1012.9
20260905191140 34 303 3.2 11.3 0.00 0.00 0.00 67 1012.9
20260905190735 34 303 3.2 11.3 0.00 0.00 0.00 67 1012.9
20260905190624 34 302 3.2 9.7 0.00 0.00 0.00 68 1012.9
20260905190205 34 302 3.2 9.7 0.00 0.00 0.00 68 1012.9
20260905185705 34 306 3.2 9.7 0.00 0.00 0.00 68 1013.0
20260905185135 33 302 3.2 6.4 0.00 0.00 0.00 69 1013.1
20260905184635 33 299 4.8 14.5 0.00 0.00 0.00 66 1013.1
20260905184105 33 288 4.8 14.5 0.00 0.00 0.00 70 1013.0
20260905183535 33 287 4.8 9.7 0.00 0.00 0.00 73 1013.2
20260905182505 32 311 3.2 6.4 0.00 0.00 0.00 75 1013.1
20260905182005 32 287 4.8 12.9 0.00 0.00 0.00 72 1013.2
20260905181505 32 265 4.8 12.9 0.00 0.00 0.00 72 1013.3
20260905180935 33 253 4.8 11.3 0.00 0.00 0.00 68 1013.3
20260905180435 33 259 4.8 9.7 0.00 0.00 0.00 70 1013.3
20260905180212 33 253 4.8 9.7 0.00 0.00 0.00 71 1013.3
20260905175935 33 253 4.8 9.7 0.00 0.00 0.00 71 1013.3
20260905175405 32 241 3.2 11.3 0.00 0.00 0.00 72 1013.4
20260905174305 32 251 3.2 6.4 0.00 0.00 0.00 72 1013.5
20260905173805 32 253 3.2 6.4 0.00 0.00 0.00 71 1013.6
20260905173235 32 267 1.6 6.4 0.00 0.00 0.00 72 1013.7
20260905172705 32 269 1.6 6.4 0.00 0.00 0.00 71 1013.9
20260905171635 32 238 3.2 8.0 0.00 0.00 0.00 71 1013.9
20260905170635 32 325 1.6 4.8 0.00 0.00 0.00 71 1014.2
20260905170135 33 324 1.6 4.8 0.00 0.00 0.00 71 1014.4
20260905165105 33 303 1.6 4.8 0.00 0.00 0.00 73 1014.4
20260905165001 27 234 3.2 8.0 0.00 0.00 0.00 93 1015.3
20260905164957 27 227 3.2 8.0 0.00 0.00 0.00 93 1015.3
20260905164605 32 266 1.6 6.4 0.00 0.00 0.00 72 1014.6
20260905164035 32 240 1.6 6.4 0.00 0.00 0.00 74 1014.7
20260905163505 32 240 3.2 6.4 0.00 0.00 0.00 74 1014.7
20260905163005 31 251 3.2 8.0 0.00 0.00 0.00 75 1014.8
20260905162507 31 257 3.2 8.0 0.00 0.00 0.00 78 1014.9
20260905161935 31 259 3.2 6.4 0.00 0.00 0.00 77 1015.0
20260905161435 31 262 1.6 8.0 0.00 0.00 0.00 78 1014.9
20260905161305 31 261 3.2 8.0 0.00 0.00 0.00 78 1014.8
20260905160935 31 261 3.2 8.0 0.00 0.00 0.00 78 1014.8
20260905160750 31 262 1.6 6.4 0.00 0.00 0.00 79 1014.9
20260905160435 31 262 1.6 6.4 0.00 0.00 0.00 79 1014.9
20260905155935 31 241 1.6 8.0 0.00 0.00 0.00 80 1015.0
20260905155405 31 240 3.2 8.0 0.00 0.00 0.00 78 1015.0
20260905155158 31 246 3.2 6.4 0.00 0.00 0.00 78 1015.0
20260905154905 31 246 3.2 6.4 0.00 0.00 0.00 78 1015.0
20260905153305 30 245 1.6 4.8 0.00 0.00 0.00 80 1015.2
20260905152235 30 267 1.6 4.8 0.00 0.00 0.00 83 1015.3
20260905152012 30 273 1.6 4.8 0.00 0.00 0.00 80 1015.3
20260905151735 30 273 1.6 4.8 0.00 0.00 0.00 80 1015.3
20260905150635 31 273 3.2 9.7 0.00 0.00 0.00 81 1015.3
20260905145535 31 239 3.2 12.9 0.00 0.00 0.00 81 1015.1
20260905145005 30 211 3.2 8.0 0.00 0.00 0.00 82 1015.3
20260905144707 30 251 3.2 8.0 0.00 0.00 0.00 85 1015.2
20260905144506 30 251 3.2 8.0 0.00 0.00 0.00 85 1015.2
20260905143935 30 236 3.2 12.9 0.00 0.00 0.00 84 1015.2
20260905143405 30 228 4.8 12.9 0.00 0.00 0.00 83 1015.2
20260905142905 30 244 3.2 11.3 0.00 0.00 0.00 84 1015.1
20260905141305 29 256 3.2 8.0 0.00 0.00 0.00 87 1015.3
20260905140735 29 242 1.6 8.0 0.00 0.00 0.00 87 1015.3
20260905135918 28 243 3.2 6.4 0.00 0.00 0.00 88 1015.3
20260905135706 28 243 3.2 6.4 0.00 0.00 0.00 88 1015.3
20260905135329 28 228 3.2 6.4 0.00 0.00 0.00 89 1015.4
20260905135135 28 228 3.2 6.4 0.00 0.00 0.00 89 1015.4
20260905134404 28 247 3.2 8.0 0.00 0.00 0.00 90 1015.3
20260905134105 28 247 3.2 8.0 0.00 0.00 0.00 90 1015.3
20260905133819 28 233 1.6 4.8 0.00 0.00 0.00 92 1015.2
20260905133535 28 233 1.6 4.8 0.00 0.00 0.00 92 1015.2
20260905133005 27 235 1.6 6.4 0.00 0.00 0.00 92 1015.3
20260905132755 27 234 3.2 8.0 0.00 0.00 0.00 93 1015.3
20260905132435 27 234 3.2 8.0 0.00 0.00 0.00 93 1015.3
20260905131905 27 227 3.2 8.0 0.00 0.00 0.00 93 1015.3
20260905130717 26 241 4.8 11.3 0.00 0.00 0.00 96 1015.2
20260905130713 26 239 3.2 9.7 0.00 0.00 0.00 96 1015.1
20260905130711 30 100 3.2 6.4 0.00 0.36 0.00 85 1014.7
20260905130708 30 85 3.2 9.7 0.00 0.41 0.00 83 1014.5
20260905125805 27 249 3.2 8.0 0.00 0.00 0.00 95 1015.2
20260905125514 26 245 3.2 6.4 0.00 0.00 0.00 95 1015.2
20260905125306 26 245 3.2 6.4 0.00 0.00 0.00 95 1015.2
20260905125036 26 244 4.8 11.3 0.00 0.00 0.00 95 1015.2
20260905124805 26 244 4.8 11.3 0.00 0.00 0.00 95 1015.2
20260905124404 26 241 4.8 11.3 0.00 0.00 0.00 96 1015.2
20260905124235 26 241 4.8 11.3 0.00 0.00 0.00 96 1015.2
20260905123844 26 239 3.2 9.7 0.00 0.00 0.00 96 1015.1
20260905123706 26 239 3.2 9.7 0.00 0.00 0.00 96 1015.1
20260905123650 25 177 0.0 3.2 0.00 0.61 0.00 100 1014.6
20260905123419 26 238 1.6 8.0 0.00 0.00 0.00 98 1015.2
20260905123135 26 238 1.6 8.0 0.00 0.00 0.00 98 1015.2
20260905122853 26 235 1.6 4.8 0.00 0.00 0.00 98 1015.1
20260905122605 26 235 1.6 4.8 0.00 0.00 0.00 98 1015.1
20260905122105 25 229 1.6 4.8 0.00 0.00 0.00 98 1015.1
20260905121830 25 230 1.6 3.2 0.00 0.00 0.00 98 1015.1
20260905121605 25 230 1.6 3.2 0.00 0.00 0.00 98 1015.1
20260905120535 25 241 3.2 4.8 0.00 0.00 0.00 99 1014.9
20260905120035 25 240 3.2 6.4 0.00 0.00 0.00 99 1015.0
20260905115201 25 234 1.6 6.4 0.00 0.00 0.00 99 1014.8
20260905115006 25 234 1.6 6.4 0.00 0.00 0.00 99 1014.8
20260905114705 25 233 1.6 4.8 0.00 0.00 0.00 99 1014.7
20260905114505 25 233 1.6 4.8 0.00 0.00 0.00 99 1014.7
20260905114118 25 244 1.6 4.8 0.00 0.00 0.00 99 1014.7
20260905113935 25 244 1.6 4.8 0.00 0.00 0.00 99 1014.7
20260905113612 25 244 1.6 4.8 0.00 0.00 0.00 99 1014.7
20260905113405 25 244 1.6 4.8 0.00 0.00 0.00 99 1014.7
20260905112905 25 240 3.2 6.4 0.00 0.00 0.00 99 1014.6
20260905112406 25 239 3.2 8.0 0.00 0.00 0.00 99 1014.6
20260905111004 25 238 3.2 6.4 0.00 0.00 0.00 99 1014.6
20260905110805 25 238 3.2 6.4 0.00 0.00 0.00 99 1014.6
20260905110526 25 241 3.2 6.4 0.00 0.00 0.00 100 1014.7
20260905110306 25 241 3.2 6.4 0.00 0.00 0.00 100 1014.7
20260905105929 25 236 1.6 4.8 0.00 0.00 0.00 99 1014.6
20260905105735 25 236 1.6 4.8 0.00 0.00 0.00 99 1014.6
20260905105500 25 237 1.6 3.2 0.00 0.00 0.00 99 1014.5
20260905105236 25 237 1.6 3.2 0.00 0.00 0.00 99 1014.5
20260905104919 25 249 1.6 3.2 0.00 0.00 0.00 99 1014.5
20260905104735 25 249 1.6 3.2 0.00 0.00 0.00 99 1014.5
20260905104205 25 248 0.0 3.2 0.00 0.00 0.00 99 1014.6
20260905103412 25 238 1.6 3.2 0.00 0.00 0.00 99 1014.5
20260905103136 25 238 1.6 3.2 0.00 0.00 0.00 99 1014.5
20260905102635 25 238 1.6 3.2 0.00 0.00 0.00 99 1014.5
20260905102439 25 236 1.6 3.2 0.00 0.00 0.00 99 1014.3
20260905102135 25 236 1.6 3.2 0.00 0.00 0.00 99 1014.3
20260905101804 25 234 1.6 3.2 0.00 0.00 0.00 98 1014.4
20260905101636 25 234 1.6 3.2 0.00 0.00 0.00 98 1014.4
20260905101412 25 234 1.6 3.2 0.00 0.00 0.00 98 1014.4
20260905101135 25 234 1.6 3.2 0.00 0.00 0.00 98 1014.4
20260905100635 25 234 1.6 3.2 0.00 0.00 0.00 98 1014.3
20260905100340 25 232 0.0 3.2 0.00 0.00 0.00 98 1014.4
20260905100105 25 232 0.0 3.2 0.00 0.00 0.00 98 1014.4
20260905095035 25 232 0.0 3.2 0.00 0.00 0.00 98 1014.3
20260905093936 25 243 1.6 4.8 0.00 0.00 0.00 98 1014.3
20260905093648 25 247 1.6 3.2 0.00 0.00 0.00 98 1014.3
20260905093435 25 247 1.6 3.2 0.00 0.00 0.00 98 1014.3
20260905092906 25 247 1.6 3.2 0.00 0.00 0.00 98 1014.3
20260905092405 25 238 1.6 3.2 0.00 0.00 0.00 99 1014.2
20260905091538 25 200 0.0 1.6 0.00 0.00 0.00 99 1014.2
20260905091335 25 200 0.0 1.6 0.00 0.00 0.00 99 1014.2
20260905090836 25 195 0.0 1.6 0.00 0.00 0.00 99 1014.1
20260905090533 25 195 0.0 1.6 0.00 0.00 0.00 99 1014.0
20260905090305 25 195 0.0 1.6 0.00 0.00 0.00 99 1014.0
20260905085735 25 230 0.0 3.2 0.00 0.00 0.00 99 1014.0
20260905084205 25 191 0.0 1.6 0.00 0.00 0.00 98 1014.0
20260905083637 25 0 0.0 0.0 0.00 0.00 0.00 98 1014.1
20260905083105 25 190 0.0 1.6 0.00 0.00 0.00 98 1014.2
20260905082605 25 188 0.0 1.6 0.00 0.00 0.00 98 1014.3
20260905082106 25 187 0.0 1.6 0.00 0.00 0.00 98 1014.3
20260905081715 25 0 0.0 0.0 0.00 0.00 0.00 98 1014.3
20260905081535 25 0 0.0 0.0 0.00 0.00 0.00 98 1014.3
20260905081353 25 187 0.0 1.6 0.00 0.00 0.00 98 1014.2
20260905081035 25 187 0.0 1.6 0.00 0.00 0.00 98 1014.2
20260905080705 25 190 0.0 1.6 0.00 0.00 0.00 98 1014.2
20260905080505 25 190 0.0 1.6 0.00 0.00 0.00 98 1014.2
20260905075109 25 166 0.0 1.6 0.00 0.00 0.00 98 1014.1
20260905074905 25 166 0.0 1.6 0.00 0.00 0.00 98 1014.1
20260905074405 25 173 0.0 1.6 0.00 0.00 0.00 98 1014.2
20260905073022 24 107 0.0 3.2 0.00 0.00 0.00 97 1014.2
20260905072836 24 107 0.0 3.2 0.00 0.00 0.00 97 1014.2
20260905071101 25 217 0.0 1.6 0.00 0.00 0.00 96 1014.2
20260905070835 25 217 0.0 1.6 0.00 0.00 0.00 96 1014.2
20260905065528 25 235 0.0 1.6 0.00 0.00 0.00 96 1014.4
20260905065306 25 235 0.0 1.6 0.00 0.00 0.00 96 1014.4
20260905064502 25 241 0.0 1.6 0.00 0.00 0.00 96 1014.4
20260905064305 25 241 0.0 1.6 0.00 0.00 0.00 96 1014.4
20260905063735 25 0 0.0 0.0 0.00 0.00 0.00 95 1014.5
20260905063444 25 241 0.0 1.6 0.00 0.00 0.00 95 1014.5
20260905063235 25 241 0.0 1.6 0.00 0.00 0.00 95 1014.5
20260905062706 25 241 0.0 1.6 0.00 0.00 0.00 95 1014.4
20260905062135 25 241 0.0 1.6 0.00 0.00 0.00 95 1014.5
20260905061105 25 241 0.0 1.6 0.00 0.00 0.00 95 1014.5
20260905060705 25 241 0.0 1.6 0.00 0.00 0.00 95 1014.5
20260905060535 25 241 0.0 1.6 0.00 0.00 0.00 95 1014.5
20260905060159 25 0 0.0 1.6 0.00 0.00 0.00 95 1014.6
20260905060005 25 0 0.0 1.6 0.00 0.00 0.00 95 1014.6
20260905055614 25 0 0.0 0.0 0.00 0.00 0.00 95 1014.7
20260905055435 25 0 0.0 0.0 0.00 0.00 0.00 95 1014.7
20260905054905 25 265 0.0 3.2 0.00 0.00 0.00 95 1014.8
20260905053805 25 189 0.0 3.2 0.00 0.00 0.00 95 1014.8
20260905053509 25 175 0.0 3.2 0.00 0.00 0.00 95 1014.9
20260905053305 25 175 0.0 3.2 0.00 0.00 0.00 95 1014.9
20260905052458 26 183 0.0 1.6 0.00 0.00 0.00 95 1015.1
20260905052235 26 183 0.0 1.6 0.00 0.00 0.00 95 1015.1
20260905051901 26 183 0.0 1.6 0.00 0.00 0.00 95 1015.1
20260905051735 26 183 0.0 1.6 0.00 0.00 0.00 95 1015.1
20260905051205 26 180 0.0 1.6 0.00 0.00 0.00 95 1015.2
20260905050351 26 176 0.0 3.2 0.00 0.00 0.00 95 1015.2
20260905050135 26 176 0.0 3.2 0.00 0.00 0.00 95 1015.2
20260905045939 26 180 0.0 1.6 0.00 0.00 0.00 95 1015.3
20260905045635 26 180 0.0 1.6 0.00 0.00 0.00 95 1015.3
20260905045105 26 188 0.0 1.6 0.00 0.00 0.00 95 1015.3
20260905044605 26 192 0.0 1.6 0.00 0.00 0.00 95 1015.4
20260905044035 26 225 0.0 3.2 0.00 0.00 0.00 94 1015.4
20260905043653 26 216 1.6 3.2 0.00 0.00 0.00 94 1015.4
20260905043505 26 216 1.6 3.2 0.00 0.00 0.00 94 1015.4
20260905042935 26 214 0.0 3.2 0.00 0.00 0.00 95 1015.3
20260905042651 26 214 0.0 1.6 0.00 0.00 0.00 94 1015.3
20260905042405 26 214 0.0 1.6 0.00 0.00 0.00 94 1015.3
20260905042112 26 208 1.6 3.2 0.00 0.00 0.00 94 1015.3
20260905041905 26 208 1.6 3.2 0.00 0.00 0.00 94 1015.3
20260905041654 26 207 1.6 3.2 0.00 0.00 0.00 93 1015.4
20260905041405 26 207 1.6 3.2 0.00 0.00 0.00 93 1015.4
20260905040905 26 182 1.6 3.2 0.00 0.00 0.00 93 1015.2
20260905040405 26 170 1.6 3.2 0.00 0.00 0.00 93 1015.3